星链-3167 (STARLINK-3167 )

导读 | 星芒AI

STARLINK-3167 是 SpaceX Starlink 项目中的一颗低轨通信卫星,属于第三代星链卫星(Gen2)。该卫星于2024年发射,旨在为全球用户提供高速、低延迟的互联网服务。它运行在约550公里高的近地轨道,配备先进通信设备和激光链路,以提升网络效率和覆盖范围。作为 Starlink 卫星群的一部分,STARLINK-3167 支持偏远地区的互联网接入,推动全球数字连接的发展。

基本信息
目录编号:
51460
目录名称:
STARLINK-3167
国际标识:
2022-010E
轨道中心:
EARTH
卫星名称:
星链-3167
卫星全名:
星链-3167 (STARLINK-3167 )
卫星状态:
已陨落 最后检测时间 2024-12-24
发射日期:
2022-02-03 UTC
国别 :
美国 (US)
星等 :
--
轨道信息
数据来源 国际轨道数据
星历时间: 2024-12-24T22:30:32+0800
轨道信息已过期312天
半长轴: 6520.922km
偏心率: 0.000445
轨道倾角: 53.196°
近地点辐角 344.344°
升交点赤经 72.521°
平近点角 119.400°
近地点: 139.885km
远地点: 145.689km
周期: 87.342分钟
每日圈数: 16.486911
详细信息
固有亮度:
5
最大亮度:
2.5
卫星平台:
Starlink v1.5
覆盖范围:
全球
运营商:
太空探索技术公司
运营商所在国:
美国
制造商(研发单位):
太空探索技术公司
制造商所在国:
美国
使用方式:
暂无
卫星简介
星链(Starlink)计划是由太空探索技术公司(SpaceX)提出的一个巨型低轨卫星互联网星座项目,计划在2019年至2024年间在太空搭建由约1.2万颗卫星组成的“星链”网络,其中1584颗将部署在地球上空550千米处的近地轨道,并从2020年开始工作。该卫星仍在工作。